COSMOS 1275 DEB, 42233

Orbit data source: Space-Track

COSMOS 1275 DEB, 42233 is space debris in LEO originally from a launch on Thu, 04 Jun 1981 UTC launched from the Plesetsk Missile And Space Complex (PKMTR). Debris objects in space refer to the collection of defunct objects orbiting the Earth. Examples of debris include non-operational satellites, rocket bodies, and fragments generated from explosions, collisions, or faulty payload assembly.

Loading next visibility...
Identifier
42233, 1981-053UZ
Orbit
LEO
Country
Flag of CISCIS
Related business
Manufacturer
Unknown
Mission
Spacecraft
Bus & Motor
Unknown
Mass
Unknown
Launch date (UTC)
1981-06-04 (44 years ago)
Launch vehicle
Unknown
Launch site
Plesetsk Missile And Space Complex (PKMTR)
Object type
Payload
Rocket body
Debris
Shape & HBR
Unknown shape, 0.1 m
Radar Cross Section
Small (<0.1 m²)

Expand to show TLE details & history
Last TLE update: 2 days ago

TLE from 2 days ago
0 COSMOS 1275 DEB
1 42233U 81053UZ  25286.93067039  .00000544  00000-0  59583-3 0  9997
2 42233  83.0436 173.2455 0131689 103.3945 258.1926 13.66903335546535
Epoch: 2025-10-13T22:20Z
TLE epoch observation values (Epoch: 2025-10-13T22:20:09.921Z)
Latitude
0.00001°
Longitude
175.47778°
Altitude
1,034.738 km
Speed
7.324 km/s
True Right ascension
11h 32m 58s
True Declination
0° 00' 00"
Sunlit
Object was in daylight at epoch
Visualization orbit readout
Latitude
Unknown
Longitude
Unknown
Altitude
Unknown
Speed
Unknown
Apparent Right ascension
Unknown
Apparent Declination
Unknown
Sunlit
N/A
Visualization observer readout
Local Sidereal Time
13:11:53
Azimuth
Unknown
Elevation
Unknown
Doppler factor
Unknown
Orbital elements
Apogee altitude
1,105.13 km
Perigee altitude
910.599 km
Semi-major axis
7,386.002 km
Eccentricity
0.01317
Inclination
83.0436°
RAAN
173.2455°
Arg. of periapsis
103.3945°
True anomaly
256.72061°
Mean anomaly
258.1926°
Eccentric anomaly
257.45609°
Mean motion
3.41924 °/min
Orbital period
105.29 mins
BSTAR
0.00059583
Loading maneuver chart data...
Computing Atmospheric mass density...

Documentation

Showing up to 5 results
|